EHI
4 3 2 2 2 2 2 1 1 1 2 3 2 0 0 0 0 0 1 0 0 1 2 2 1 3 6 7 8 9 6 4 3 2 1 0 0 0 0 0 0 0 0
6 5 2 1 1 1 1 1 1 1 1 2 2 1 0 0 0 0 1 0 0 0 1 1 1 2 4 5 5 6 6 5 4 3 1 0 0 0 0 0 0 0 0
9 7 3 0 0 0 0 1 1 1 0 1 2 1 0 0 0 0 0 0 0 0 0 0 1 2 2 2 2 3 5 6 6 3 1 0 0 0 0 0 0 0 0
8 7 4 1 0 0 0 1 2 2 1 0 1 1 0 0 0 0 0 0 0 0 1 1 1 1 1 1 1 2 3 5 5 2 0 0 0 0 0 0 0 0 0
7 7 5 2 1 0 0 1 2 2 1 0 0 0 0 0 1 0 0 0 0 0 1 2 2 2 2 2 2 2 3 5 4 2 0 0 0 0 0 0 0 0 0
7 6 5 3 1 1 1 1 1 1 0 0 0 0 0 0 0 0 0 0 0 0 1 1 2 2 2 3 3 2 4 5 4 2 1 0 0 0 0 0 0 0 0
5 4 4 4 3 2 2 1 0 0 0 0 0 0 0 0 0 0 0 0 0 0 0 0 1 1 2 3 3 2 5 6 5 2 1 1 0 0 0 0 0 0 0
2 3 3 4 3 2 2 1 0 0 0 0 0 0 0 0 0 0 0 0 0 0 0 0 0 0 1 2 2 2 5 7 6 3 2 2 1 0 0 0 0 0 0
1 1 2 2 1 1 1 0 0 0 0 0 0 0 0 0 0 0 0 0 0 0 0 0 0 0 0 0 0 1 3 5 6 4 3 3 2 1 0 0 0 0 1
0 0 1 1 0 0 0 0 0 0 0 0 0 0 0 0 0 0 0 0 0 0 0 0 0 0 0 0 1 1 1 2 3 3 3 2 2 2 1 1 2 2 2
0 0 0 0 0 0 0 0 0 0 0 0 0 0 0 0 0 0 0 0 0 0 0 0 0 0 0 0 1 1 0 0 1 2 2 1 1 2 2 3 3 3 3
0 0 0 0 0 0 0 0 0 0 0 0 0 0 0 0 0 0 0 0 0 0 0 0 0 0 0 0 1 1 0 0 0 1 1 0 0 1 1 2 3 3 3
0 0 0 0 0 0 0 0 0 0 0 0 0 0 0 0 0 0 0 0 0 0 0 0 0 0 0 0 0 0 0 0 0 0 0 0 0 0 0 1 1 1 2
0 0 0 0 0 0 0 0 0 0 0 0 0 0 0 0 0 0 0 0 0 0 0 0 0 0 0 0 0 0 0 0 0 0 0 0 0 0 0 0 0 0 1
0 0 0 0 0 0 0 0 0 0 0 0 0 0 0 0 0 0 0 0 0 0 0 0 0 0 0 0 0 0 0 0 0 0 0 0 0 0 0 0 0 0 0
0 0 0 0 0 0 0 0 0 0 0 0 0 0 0 0 0 0 0 0 0 0 0 0 0 0 0 0 0 0 0 0 0 0 0 0 0 0 0 0 0 0 0
0 0 0 0 0 0 0 0 0 0 0 0 0 0 0 0 0 0 0 0 0 0 0 0 0 0 0 0 0 0 0 0 0 0 0 0 0 0 0 0 0 0 0
0 0 0 0 0 0 0 0 0 0 0 0 0 0 0 0 0 0 0 0 0 0 0 0 0 0 0 0 0 0 0 0 0 0 0 0 0 0 0 0 0 0 0
0 0 0 0 0 0 0 0 0 0 0 0 0 0 0 0 0 0 0 0 0 0 0 0 0 0 0 0 0 0 0 0 0 0 0 0 0 0 0 0 0 0 0
0 0 0 0 0 0 0 0 0 0 0 0 0 0 0 0 0 0 0 0 0 0 0 0 0 0 0 0 0 0 0 0 0 0 0 0 0 0 0 0 0 0 0
0 0 0 0 0 0 0 0 0 0 0 0 0 0 0 0 0 0 0 0 0 0 0 0 0 0 0 0 0 0 0 0 0 0 0 0 0 0 0 0 0 0 0
0 0 0 0 0 0 0 0 0 0 0 0 0 0 0 0 0 0 0 0 0 0 0 0 0 0 0 0 0 0 0 0 0 0 0 0 0 0 0 0 0 0 0
0 0 0 0 0 0 0 0 0 0 0 0 0 0 0 0 0 0 0 0 0 0 0 0 0 0 0 0 0 0 0 0 0 0 0 0 0 0 0 0 0 0 0
0 0 0 0 0 0 0 0 0 0 0 0 0 0 0 0 0 0 0 0 0 0 0 0 0 0 0 0 0 0 0 0 0 0 0 0 0 0 0 0 0 0 0
0 0 0 0 0 0 0 0 0 0 0 0 0 0 0 0 0 0 0 0 0 0 0 0 0 0 0 0 0 0 0 0 0 0 0 0 0 0 0 0 0 0 0
0 0 0 0 0 0 0 0 0 0 0 0 0 0 0 0 0 0 0 0 0 0 0 0 0 0 0 0 0 0 0 0 0 0 0 0 0 0 0 0 0 0 0
Wind_Speed
6 5 4 4 5 4 4 4 4 4 5 5 6 7 8 8 8 7 5 12 12 12 13 12 11 11 11 12 14 15 17 18 18 18 18 18 18 18 17 17 16 16 15
6 5 5 4 4 4 3 3 3 3 3 3 5 6 6 6 7 7 6 8 11 11 11 12 11 11 11 12 14 14 15 17 17 18 18 18 18 18 18 18 18 17 16
7 6 5 4 3 3 3 2 2 1 2 2 4 4 5 5 6 6 6 5 6 9 11 12 12 11 11 13 14 14 15 15 16 17 18 19 19 18 18 19 19 18 18
8 5 4 4 3 2 2 2 2 2 2 2 3 3 3 4 6 6 6 6 5 5 8 12 12 12 13 14 14 14 14 14 14 16 17 18 19 19 19 19 19 19 19
6 5 4 3 3 2 2 2 2 2 2 2 3 4 3 4 5 5 6 6 6 6 6 8 12 13 13 15 14 14 13 13 13 15 17 18 18 18 19 19 19 19 19
5 4 3 4 4 3 2 2 2 2 2 2 3 3 3 3 3 4 5 4 5 6 6 7 6 8 12 13 14 14 15 14 13 14 15 17 17 17 18 18 19 19 19
5 5 4 4 4 4 3 3 2 2 1 0 0 2 2 2 2 2 2 3 3 4 4 5 5 5 5 10 12 14 16 16 14 14 14 15 15 15 16 17 18 19 19
4 5 5 4 4 3 3 3 3 2 1 1 1 1 2 3 2 1 1 1 2 2 3 4 5 6 6 5 6 11 14 15 16 16 15 14 14 14 14 16 17 18 18
3 3 4 4 4 4 4 4 4 4 2 1 1 2 1 1 2 3 2 1 2 2 3 3 5 5 6 5 6 9 13 13 15 16 15 14 13 14 13 13 14 16 17
1 1 2 3 4 3 4 4 4 3 3 2 1 1 2 2 1 2 3 2 3 3 4 4 4 5 5 5 6 10 12 12 13 15 14 13 12 12 13 13 14 14 15
2 3 2 1 3 3 4 4 4 4 3 3 3 2 1 1 2 2 3 3 3 3 4 5 4 4 4 5 5 7 10 10 10 11 11 12 11 10 10 10 12 13 14
2 4 3 2 1 2 3 4 4 5 5 4 3 3 3 3 3 3 3 3 4 4 4 4 3 3 3 3 5 6 7 8 8 8 9 10 10 9 9 9 11 12 13
2 3 3 3 2 2 2 3 4 5 5 5 5 4 4 4 3 3 3 3 3 3 3 2 2 2 3 2 2 3 4 6 6 6 6 6 6 6 6 6 7 9 10
2 2 2 2 3 3 2 2 3 4 4 5 6 6 4 5 4 4 3 2 3 3 2 3 1 1 1 2 2 2 0 3 4 5 5 4 4 4 4 3 4 5 7
2 2 2 2 2 2 2 2 2 3 4 5 6 6 5 5 5 5 4 4 3 3 3 3 1 1 1 2 2 2 2 4 5 6 6 6 5 5 4 2 1 2 4
3 3 3 3 3 3 2 2 2 3 3 4 4 6 6 4 4 5 5 5 5 4 4 2 2 0 1 1 3 3 4 7 8 8 8 8 8 7 6 5 3 2 1
5 5 4 4 4 4 3 3 3 4 4 4 4 5 6 6 5 5 5 5 5 5 6 4 2 1 1 2 3 4 4 5 6 10 11 10 10 9 9 8 6 5 5
6 6 6 5 5 5 4 4 5 4 4 5 5 5 6 5 6 5 5 6 6 6 6 6 3 2 2 4 5 5 4 5 6 10 12 12 12 11 11 10 9 9 8
7 7 6 7 7 6 6 6 6 5 5 5 5 5 5 5 6 5 6 6 6 6 6 5 4 3 2 4 5 5 6 5 6 8 12 13 13 13 12 11 11 11 11
8 8 8 8 8 7 7 7 6 6 6 6 5 5 6 6 7 7 6 7 6 6 6 6 5 4 3 4 5 5 5 4 5 6 8 9 12 13 13 12 12 13 12
10 9 8 8 8 7 7 8 7 7 6 6 6 6 6 8 9 8 7 7 7 7 6 6 6 5 5 6 6 5 6 6 5 4 5 5 6 6 7 10 12 13 13
9 8 9 9 9 8 10 13 9 7 6 7 7 6 6 8 9 10 12 12 11 9 9 7 7 7 8 7 6 8 8 7 4 3 4 5 5 6 5 5 9 12 12
9 9 9 9 10 11 14 13 13 8 8 7 7 7 6 6 7 6 8 11 12 14 13 9 9 9 9 10 11 11 9 6 5 6 6 5 4 6 5 6 10 11 12
8 8 9 9 9 11 14 14 14 9 7 8 8 8 8 7 7 7 6 7 8 10 12 11 10 9 9 10 12 11 11 9 8 4 3 5 4 4 5 6 9 11 11
8 8 7 9 9 10 13 13 12 6 6 8 8 8 8 8 8 9 7 7 8 7 8 10 10 9 11 14 13 11 11 11 8 4 2 5 5 4 4 5 7 10 10
8 8 8 8 9 10 12 13 11 5 6 6 6 7 9 9 8 8 8 8 9 7 6 6 7 9 11 15 18 15 14 13 10 6 4 5 6 5 5 3 3 5 7
Wind_Direction
232 229 231 233 235 233 232 231 225 228 230 232 234 237 237 237 237 235 240 245 246 243 243 238 232 230 228 226 225 222 222 219 215 212 212 213 214 212 210 210 210 208 206
234 230 229 228 229 226 224 221 219 220 229 232 238 239 242 243 242 241 241 252 254 248 242 236 235 236 230 229 228 224 224 223 218 214 213 213 215 215 213 213 213 212 209
236 227 226 222 222 217 211 211 221 213 227 233 245 250 248 245 245 244 243 244 249 248 242 233 234 236 233 228 227 223 223 223 221 218 216 215 215 215 215 214 214 214 212
236 214 209 214 203 188 183 189 197 198 221 232 247 254 249 248 249 248 247 245 244 246 241 237 236 233 233 233 230 228 224 224 223 222 220 218 217 216 215 216 216 215 214
227 206 198 199 179 168 177 192 182 189 207 231 248 251 250 252 256 259 253 249 243 242 241 243 242 238 234 236 233 233 234 231 227 227 226 222 220 218 216 216 217 216 215
219 196 190 190 175 167 172 177 179 182 204 234 265 273 274 273 266 256 256 255 250 248 244 243 244 245 241 238 232 231 235 235 229 228 231 229 224 219 217 216 217 217 216
208 193 191 189 183 178 180 179 163 161 192 184 357 323 318 300 282 257 265 259 261 261 256 249 244 241 243 241 237 231 231 233 230 230 232 232 227 221 218 218 217 217 217
211 205 196 192 184 172 169 172 156 151 174 152 139 61 342 342 342 349 322 281 284 283 277 272 258 248 246 241 237 235 234 234 232 230 229 231 229 225 222 222 220 217 216
221 209 206 199 186 174 181 185 169 163 175 193 179 160 163 244 309 321 327 329 323 300 292 288 273 261 250 242 240 238 236 233 231 231 230 226 222 220 220 224 223 219 218
304 260 225 207 198 190 188 190 177 169 163 184 198 209 200 178 195 311 313 314 313 296 294 294 286 273 257 246 239 234 233 232 231 231 229 225 219 218 219 223 227 225 221
11 5 331 253 217 208 204 198 182 181 178 179 183 180 190 210 205 225 281 307 316 294 288 288 285 278 267 249 240 236 231 230 228 226 223 219 217 216 218 224 231 233 230
3 7 352 327 263 225 218 213 205 197 195 192 194 190 187 192 196 205 245 283 299 295 296 290 284 285 280 260 247 239 227 220 219 221 221 216 215 220 222 228 236 240 239
338 342 345 330 309 275 242 220 216 216 203 202 205 207 208 215 201 195 224 262 279 293 300 299 291 307 308 301 282 262 232 208 201 201 200 197 201 207 211 221 234 245 248
274 292 316 321 320 309 290 242 228 227 216 215 218 213 212 218 209 207 204 219 269 274 275 280 310 337 349 2 18 10 138 157 158 158 154 151 157 166 175 198 224 238 248
262 277 297 308 304 307 302 282 252 248 231 225 226 224 221 222 213 214 211 208 222 259 273 269 272 9 29 32 39 50 79 104 118 122 118 116 116 119 127 137 177 226 242
247 263 272 276 286 289 286 282 270 267 257 245 230 227 229 224 216 213 213 214 217 230 250 252 246 271 40 64 69 76 86 93 93 99 100 102 102 99 100 101 106 114 150
241 242 247 252 257 262 261 259 262 261 255 260 257 239 236 227 221 217 212 213 218 222 244 252 237 210 163 133 101 90 87 83 86 90 91 89 87 86 83 80 76 76 77
238 236 235 239 246 245 237 237 250 249 246 251 251 247 247 238 228 221 215 218 220 218 230 246 234 207 185 157 131 114 100 93 91 90 89 85 82 80 77 73 69 69 67
237 237 230 233 240 241 238 233 234 244 243 245 243 240 245 241 239 230 223 222 222 221 220 231 229 202 172 153 135 118 110 102 96 93 85 80 79 77 75 74 72 70 69
233 235 232 231 233 236 237 238 234 238 241 243 241 236 238 235 239 237 231 226 220 219 219 222 219 202 176 156 148 139 128 113 102 90 82 79 78 75 72 74 77 77 74
236 231 232 234 232 229 232 230 230 234 234 242 246 245 245 245 243 237 230 223 215 215 215 216 212 198 181 169 163 150 139 124 95 100 99 81 77 73 67 68 75 80 80
239 230 228 232 233 233 229 224 219 225 231 239 249 254 256 256 257 250 237 227 216 214 214 213 211 203 190 172 156 154 148 144 133 138 111 88 78 77 68 72 77 83 84
240 232 232 229 232 235 233 232 230 223 228 234 239 246 256 253 247 252 247 235 225 222 218 214 214 207 189 174 164 164 164 151 134 146 126 99 84 78 68 73 83 87 88
239 236 235 231 230 237 234 233 235 229 228 233 235 236 241 253 250 243 247 243 236 229 222 220 222 213 193 177 171 162 149 121 106 116 114 108 101 86 77 72 78 92 95
243 237 233 228 227 237 236 234 231 221 228 238 238 234 233 244 249 239 237 242 242 238 227 219 216 207 184 167 156 145 145 141 136 134 110 113 127 109 84 72 73 85 96
244 242 239 230 227 233 235 231 224 212 227 238 239 235 233 236 244 237 232 232 235 230 208 198 197 190 178 166 163 163 159 154 145 142 155 129 146 136 110 81 82 96 97